Ortonville, MN

7:50 PM CDT on September 23, 2017 (GMT -0500)
Ortonville Municipal-Martinson

Weather History for KVVV - January, 2013

Change the Weather History Date:

Saturday, January 5, 2013

  Actual Average (KAQP) Record (KAQP)
Temperature  
Mean Temperature 11 °F -  
Max Temperature 21 °F 20 °F 59 °F (2012)
Min Temperature 1 °F 4 °F -18 °F (2014)
Degree Days  
Heating Degree Days 54    
Moisture  
Dew Point 6 °F    
Average Humidity 80    
Maximum Humidity 92    
Minimum Humidity 62    
Precipitation  
Precipitation 0.00 in - - ()
Sea Level Pressure  
Sea Level Pressure 29.98 in    
Wind  
Wind Speed 5 mph (NW)    
Max Wind Speed 22 mph    
Max Gust Speed 31 mph    
Visibility 9 miles    
Events Fog , Snow    
Averages and records for this station are not official NWS values.
T = Trace of Precipitation, MM = Missing Value Source: NWS Daily Summary

Daily Weather History Graph

Daily Weather History Graph

Search for Another Location

Airport or City:

Trip Planner

Search our weather history database for the weather conditions in past years. The results will help you decide how hot, cold, wet, or windy it might be!

Date:

Astronomy

Jan. 05, 2013 Rise Set
Actual Time 8:04 AM CST 4:57 PM CST
Civil Twilight 7:31 AM CST 5:31 PM CST
Nautical Twilight 6:54 AM CST 6:08 PM CST
Astronomical Twilight 6:18 AM CST 6:44 PM CST
Moon 1:02 AM CST (1/5) 11:56 AM CST (1/5)
Length of Visible Light 10h 00m
Length of Day
8h 53m
Last Quarter, 44% of the Moon is Illuminated
Jan 5
Last Quarter
Jan 11
New
Jan 18
First Quarter
Jan 26
Full
Feb 3
Last Quarter

Hourly Weather History & Observations

Time (CST) Temp. Windchill Dew Point Humidity Pressure Visibility Wind Dir Wind Speed Gust Speed Precip Events Conditions
12:14 AM 8.6 °F - 5.0 °F 85% 30.01 in 4.0 mi Calm Calm - N/A   Clear
12:34 AM 8.6 °F 0.1 °F 5.0 °F 85% 30.00 in 7.0 mi SSE 4.6 mph - N/A   Clear
12:54 AM 6.8 °F - 1.4 °F 79% 30.00 in 0.5 mi Calm Calm - N/A Fog Light Freezing Fog
1:13 AM 6.8 °F - 1.4 °F 79% 30.00 in 7.0 mi Calm Calm - N/A   Scattered Clouds
1:34 AM 6.8 °F - 1.4 °F 79% 29.99 in 10.0 mi Calm Calm - N/A   Clear
1:54 AM 5.0 °F -2.1 °F 1.4 °F 85% 29.99 in 7.0 mi South 3.5 mph - N/A   Clear
2:13 AM 6.8 °F - 1.4 °F 79% 29.99 in 5.0 mi Calm Calm - N/A   Clear
2:34 AM 6.8 °F - 1.4 °F 79% 29.98 in 7.0 mi Calm Calm - N/A   Clear
2:53 AM 6.8 °F - 1.4 °F 79% 29.97 in 10.0 mi Calm Calm - N/A   Clear
3:14 AM 3.2 °F - -0.4 °F 85% 29.98 in 10.0 mi Calm Calm - N/A   Clear
3:34 AM 5.0 °F - 1.4 °F 85% 29.97 in 10.0 mi Calm Calm - N/A   Clear
3:53 AM 5.0 °F - 1.4 °F 85% 29.96 in 10.0 mi Calm Calm - N/A   Clear
4:14 AM 3.2 °F - -0.4 °F 85% 29.95 in 10.0 mi Calm Calm - N/A   Clear
4:34 AM 3.2 °F - -0.4 °F 85% 29.95 in 10.0 mi Calm Calm - N/A   Clear
4:53 AM 3.2 °F - -0.4 °F 85% 29.94 in 10.0 mi Calm Calm - N/A   Clear
5:14 AM 6.8 °F - 1.4 °F 79% 29.93 in 10.0 mi Calm Calm - N/A   Clear
5:34 AM 5.0 °F - 1.4 °F 85% 29.92 in 10.0 mi Calm Calm - N/A   Clear
6:14 AM 8.6 °F - 3.2 °F 79% 29.90 in 10.0 mi Calm Calm - N/A   Clear
6:34 AM 6.8 °F - 3.2 °F 85% 29.91 in 10.0 mi Calm Calm - N/A   Clear
6:53 AM 5.0 °F - 1.4 °F 85% 29.90 in 10.0 mi Calm Calm - N/A   Clear
7:14 AM 5.0 °F - 1.4 °F 85% 29.90 in 10.0 mi Calm Calm - N/A   Clear
7:33 AM 5.0 °F - 1.4 °F 85% 29.90 in 10.0 mi Calm Calm - N/A   Clear
7:54 AM 3.2 °F - -0.4 °F 85% 29.90 in 10.0 mi Calm Calm - N/A   Clear
8:14 AM 1.4 °F - -2.2 °F 85% 29.90 in 10.0 mi Calm Calm - N/A   Clear
8:34 AM 1.4 °F - -2.2 °F 85% 29.91 in 10.0 mi Calm Calm - N/A   Clear
8:54 AM 3.2 °F - -0.4 °F 85% 29.91 in 10.0 mi Calm Calm - N/A   Clear
9:13 AM 5.0 °F - 1.4 °F 85% 29.91 in 10.0 mi Calm Calm - N/A   Clear
9:54 AM 8.6 °F - 6.8 °F 92% 29.93 in 10.0 mi Calm Calm - N/A   Clear
10:14 AM 12.2 °F 6.1 °F 8.6 °F 85% 29.93 in 10.0 mi SW 3.5 mph - N/A   Clear
10:54 AM 15.8 °F - 12.2 °F 86% 29.93 in 10.0 mi Calm Calm - N/A   Clear
11:13 AM 15.8 °F - 12.2 °F 86% 29.93 in 10.0 mi Calm Calm - N/A   Clear
11:34 AM 17.6 °F - 12.2 °F 79% 29.92 in 10.0 mi Calm Calm - N/A   Clear
11:54 AM 19.4 °F - 10.4 °F 68% 29.91 in 10.0 mi Calm Calm - N/A   Clear
12:13 PM 21.2 °F - 10.4 °F 63% 29.91 in 10.0 mi Calm Calm - N/A   Clear
12:34 PM 21.2 °F - 10.4 °F 63% 29.91 in 10.0 mi Calm Calm - N/A   Clear
12:54 PM 21.2 °F 13.6 °F 12.2 °F 68% 29.90 in 10.0 mi NNW 5.8 mph - N/A   Clear
1:13 PM 21.2 °F 8.9 °F 10.4 °F 63% 29.91 in 10.0 mi NNW 12.7 mph - N/A   Clear
1:34 PM 19.4 °F 5.0 °F 12.2 °F 74% 29.91 in 10.0 mi NNW 16.1 mph - N/A   Clear
1:54 PM 19.4 °F 4.1 °F 12.2 °F 74% 29.91 in 10.0 mi NW 18.4 mph 21.9 mph N/A   Clear
2:13 PM 17.6 °F 0.9 °F 10.4 °F 73% 29.92 in 10.0 mi NNW 20.7 mph - N/A   Clear
2:34 PM 17.6 °F 4.3 °F 10.4 °F 73% 29.92 in 10.0 mi NNW 12.7 mph 23.0 mph N/A   Scattered Clouds
2:54 PM 17.6 °F 1.7 °F 10.4 °F 73% 29.92 in 10.0 mi NNW 18.4 mph 23.0 mph N/A   Mostly Cloudy
3:14 PM 15.8 °F -0.2 °F 10.4 °F 79% 29.94 in 4.0 mi NW 17.3 mph 24.2 mph N/A   Haze
3:34 PM 12.2 °F -5.3 °F 8.6 °F 85% 29.96 in 2.5 mi NNW 18.4 mph 31.1 mph N/A Snow Light Snow
3:53 PM 12.2 °F -5.3 °F 6.8 °F 79% 29.97 in 2.0 mi NW 18.4 mph 27.6 mph N/A Snow Light Snow
4:14 PM 12.2 °F -5.3 °F 8.6 °F 85% 29.98 in 1.5 mi NNW 18.4 mph 26.5 mph N/A Snow Light Snow
4:53 PM 12.2 °F -4.8 °F 8.6 °F 85% 29.99 in 1.8 mi NNW 17.3 mph 25.3 mph N/A Snow Light Snow
5:14 PM 14.0 °F -2.5 °F 10.4 °F 86% 30.00 in 3.0 mi NW 17.3 mph 23.0 mph N/A Snow Light Snow
5:34 PM 15.8 °F -1.9 °F 10.4 °F 79% 30.01 in 3.0 mi NNW 21.9 mph 27.6 mph N/A Snow Light Snow
6:14 PM 15.8 °F -1.1 °F 10.4 °F 79% 30.04 in 10.0 mi NNW 19.6 mph 26.5 mph N/A   Overcast
6:33 PM 15.8 °F -0.2 °F 10.4 °F 79% 30.04 in 10.0 mi NNW 17.3 mph 24.2 mph N/A   Scattered Clouds
6:54 PM 15.8 °F 0.9 °F 8.6 °F 73% 30.04 in 10.0 mi NNW 15.0 mph 20.7 mph N/A   Scattered Clouds
7:14 PM 15.8 °F 0.3 °F 5.0 °F 62% 30.05 in 10.0 mi NNW 16.1 mph 23.0 mph N/A   Scattered Clouds
7:54 PM 14.0 °F -0.8 °F 6.8 °F 73% 30.07 in 10.0 mi NNW 13.8 mph 19.6 mph N/A   Clear
8:13 PM 14.0 °F -1.4 °F 6.8 °F 73% 30.08 in 10.0 mi NNW 15.0 mph 21.9 mph N/A   Clear
8:34 PM 14.0 °F -2.5 °F 8.6 °F 79% 30.09 in 10.0 mi NW 17.3 mph 24.2 mph N/A   Clear
8:54 PM 14.0 °F -1.4 °F 8.6 °F 79% 30.10 in 10.0 mi NW 15.0 mph 21.9 mph N/A   Clear
9:13 PM 14.0 °F -2.0 °F 8.6 °F 79% 30.11 in 10.0 mi NW 16.1 mph 23.0 mph N/A   Clear
9:34 PM 14.0 °F -1.4 °F 8.6 °F 79% 30.11 in 10.0 mi NW 15.0 mph 21.9 mph N/A   Clear
9:53 PM 14.0 °F 0.5 °F 6.8 °F 73% 30.10 in 10.0 mi NW 11.5 mph 19.6 mph N/A   Clear
10:14 PM 12.2 °F -2.5 °F 6.8 °F 79% 30.11 in 10.0 mi NW 12.7 mph - N/A   Clear
10:33 PM 12.2 °F -1.0 °F 6.8 °F 79% 30.11 in 10.0 mi NW 10.4 mph 18.4 mph N/A   Clear
10:54 PM 12.2 °F -1.0 °F 6.8 °F 79% 30.11 in 10.0 mi NW 10.4 mph 16.1 mph N/A   Clear
11:14 PM 12.2 °F -1.8 °F 6.8 °F 79% 30.12 in 10.0 mi NW 11.5 mph - N/A   Clear
11:34 PM 12.2 °F -2.5 °F 8.6 °F 85% 30.13 in 10.0 mi NW 12.7 mph 18.4 mph N/A   Scattered Clouds
11:54 PM 12.2 °F -1.0 °F 8.6 °F 85% 30.12 in 10.0 mi NW 10.4 mph - N/A   Mostly Cloudy